Wind_Speed
31 30 29 28 28 30 31 30 28 26 24 22 22 22 22 23 22 22 23 24 24 23 22 21 20 20 20 21 23 24 25 25 24 23 22 22 21 20 20 19 19 18 17 15 13 13 12 13 13 13 12 12 12 11 10 9 9 9 9 10 10 11 12 11 10 10 9 10 8
30 30 29 28 29 31 31 30 28 26 25 24 24 24 24 24 23 23 22 22 23 23 22 20 19 19 19 20 21 22 24 24 23 23 22 21 19 18 17 16 15 14 13 12 11 10 10 10 9 8 7 7 7 7 7 7 7 8 8 9 10 11 11 12 11 11 11 11 10
29 31 31 30 31 31 30 28 26 25 24 24 24 24 24 24 23 22 21 20 21 21 20 19 18 18 18 18 18 19 21 22 22 22 21 19 17 15 14 13 13 12 12 11 10 10 10 8 6 4 4 4 6 6 6 7 7 8 8 9 10 11 12 12 12 12 12 11 10
28 31 32 31 31 30 28 25 23 23 23 24 24 23 22 21 21 19 18 18 18 18 18 17 16 16 16 17 17 17 18 19 19 19 18 16 14 13 12 13 13 13 13 12 11 11 10 9 6 5 6 7 7 7 8 8 8 9 9 10 11 12 12 13 13 12 11 10 11
26 28 28 27 26 25 24 21 21 21 22 23 22 21 21 20 18 17 16 15 16 16 15 15 14 14 15 16 16 17 17 17 17 16 14 13 12 12 12 13 14 15 14 13 12 12 11 9 8 9 10 10 8 7 7 7 8 9 10 11 12 12 13 13 12 11 10 10 12
23 23 22 20 19 19 19 18 18 19 21 22 21 21 20 20 18 16 15 15 15 15 14 13 12 12 13 14 15 15 15 15 14 14 14 13 13 13 14 15 15 15 15 14 13 12 11 10 11 12 13 13 10 7 7 8 9 10 11 12 13 13 14 13 12 10 10 11 14
22 21 19 18 16 16 16 16 17 18 20 21 21 21 21 21 20 19 18 17 16 15 14 13 11 11 11 12 13 13 14 14 15 15 16 16 16 15 15 16 16 15 14 13 12 11 11 11 13 15 16 16 14 11 9 9 10 12 13 14 15 15 14 13 12 11 11 14 17
21 20 19 18 17 16 17 18 18 19 20 21 22 22 21 21 22 22 21 21 19 18 16 15 14 12 12 11 12 13 14 16 17 18 18 18 17 16 16 16 15 14 13 11 10 9 10 12 14 16 17 17 17 15 12 12 12 13 14 15 15 14 13 12 11 11 13 16 18
20 19 19 18 18 17 17 19 19 20 21 21 22 21 21 21 22 23 24 24 23 22 20 19 18 17 15 14 14 14 16 17 18 18 19 18 18 17 16 15 13 12 11 9 9 9 11 13 15 17 18 19 18 17 15 14 13 13 13 13 13 13 12 11 11 12 14 16 18
19 19 20 20 19 18 18 19 20 21 21 21 21 20 20 20 22 23 24 25 25 24 23 22 21 21 20 19 19 18 19 18 18 18 19 18 18 18 16 15 13 11 10 9 9 11 12 14 15 16 17 18 17 16 15 15 14 14 13 13 14 14 13 12 12 13 13 14 15
19 20 20 21 21 21 20 21 21 21 21 21 21 20 20 20 22 23 24 25 26 26 25 24 24 23 24 24 24 23 22 21 19 18 18 18 18 17 16 14 12 11 10 11 12 14 15 16 16 15 15 15 14 14 15 16 16 16 15 14 14 13 13 12 13 13 13 13 13
19 20 21 22 23 23 23 22 22 21 21 21 20 21 21 22 23 24 25 25 26 27 27 26 26 25 25 26 26 26 25 23 22 21 20 19 19 17 15 13 11 10 11 13 15 17 19 19 19 18 17 15 15 14 16 17 18 18 17 15 12 11 10 11 12 13 14 13 12
20 20 21 22 23 25 25 23 22 21 20 20 21 23 24 25 25 25 25 26 26 27 27 27 27 26 26 26 26 26 26 26 26 25 25 23 22 19 17 14 12 11 12 14 16 18 21 22 22 22 21 20 19 18 18 19 20 20 18 16 12 10 9 10 12 13 13 13 12
22 22 22 22 23 24 24 24 22 21 21 21 22 24 26 26 25 25 25 25 25 26 26 27 27 27 27 26 26 26 26 27 28 30 30 29 26 22 19 17 15 14 14 16 17 19 22 24 26 27 27 26 25 23 22 22 22 22 20 18 15 13 13 14 14 14 13 12 11
23 23 23 23 22 23 23 23 22 22 22 22 24 26 26 25 24 23 22 22 22 23 24 25 26 27 28 27 27 27 27 28 30 32 33 32 29 25 22 19 17 16 15 14 16 19 23 26 28 30 30 31 30 28 26 25 24 23 22 20 18 18 18 17 16 15 14 13 12
19 19 19 20 21 22 23 23 23 23 23 24 26 26 26 25 23 22 21 20 20 21 22 23 25 27 28 28 28 28 28 29 30 32 33 32 30 26 23 20 17 14 12 12 15 19 24 27 29 30 31 32 31 30 28 26 24 23 21 20 20 21 21 19 17 16 15 14 13
17 16 16 16 17 19 20 22 22 23 24 25 26 26 26 25 24 22 21 21 21 22 23 24 26 27 28 28 28 28 28 28 29 31 32 31 28 25 21 18 16 13 13 14 17 22 25 27 27 28 28 29 29 28 26 25 23 21 20 20 21 21 21 20 18 17 15 14 13
16 16 15 15 16 17 17 18 20 21 22 22 23 24 25 25 24 23 23 23 24 25 26 27 28 28 29 29 28 28 28 28 29 30 30 30 27 24 21 19 17 17 17 18 21 24 25 25 25 25 25 25 25 25 23 22 20 19 19 19 20 20 20 19 18 17 15 14 13
14 14 15 15 16 16 16 17 17 17 18 19 19 20 21 22 23 24 25 25 26 27 28 29 28 28 28 28 28 28 29 29 30 30 30 28 26 24 22 21 21 21 21 22 23 25 26 25 23 23 23 23 23 22 21 19 18 17 17 17 17 17 17 16 15 14 13 13 13
14 14 15 15 16 16 16 16 16 16 16 16 17 17 19 20 21 23 24 25 25 26 26 27 27 27 27 27 28 28 29 30 30 30 29 27 26 25 24 24 23 23 23 23 25 26 26 24 23 22 22 21 21 20 18 17 16 15 14 14 14 13 13 12 12 11 11 11 11
14 15 15 15 15 15 15 15 15 15 15 15 15 16 16 17 18 19 21 21 22 23 23 24 25 26 27 27 28 28 29 29 29 29 28 26 26 25 25 24 24 24 24 24 26 26 26 24 22 21 20 19 18 17 16 14 13 12 11 11 10 10 9 9 9 9 9 9 10
13 14 14 15 15 15 15 15 14 15 15 15 15 15 16 16 17 17 18 19 20 21 23 24 25 26 27 27 27 27 27 27 27 27 26 26 25 25 25 25 25 25 25 26 27 26 25 23 21 19 18 17 16 15 14 13 12 11 9 8 8 7 7 7 7 7 7 8 9
14 14 15 15 16 16 16 16 16 16 16 16 16 16 17 17 17 17 18 19 20 22 23 24 25 25 25 25 25 25 25 25 25 25 25 26 26 26 25 26 26 26 26 26 26 25 24 22 20 18 17 16 15 13 12 11 11 10 9 8 7 6 6 5 5 6 6 8 9
15 15 16 16 16 17 17 17 17 17 17 17 17 17 17 17 17 18 18 19 20 21 22 23 23 23 23 23 23 23 24 25 25 25 26 26 26 26 26 26 26 26 26 25 24 23 22 21 19 18 16 15 14 13 12 11 10 9 8 8 7 6 6 5 6 6 7 8 8
14 15 15 16 16 17 17 17 17 17 18 18 17 17 18 18 18 18 18 19 19 20 21 22 22 22 22 22 22 23 23 25 26 26 26 26 25 25 25 25 24 24 23 23 22 20 19 19 18 17 15 14 13 12 11 10 10 9 8 8 8 7 7 6 6 6 7 7 8
14 15 16 16 16 17 17 17 18 18 18 18 18 18 18 18 19 19 19 19 19 20 20 21 21 21 21 22 22 22 23 23 24 25 25 24 24 23 23 22 22 21 20 19 19 18 17 16 15 15 14 13 13 12 12 11 10 9 8 8 8 8 8 7 7 7 7 8 8
16 16 17 17 17 18 18 18 18 18 18 18 18 19 19 19 19 19 20 20 19 19 20 21 21 21 21 22 22 22 22 22 22 22 22 22 22 21 20 19 19 18 18 17 16 15 14 13 13 12 12 12 12 12 12 12 11 10 10 9 8 8 7 7 8 8 8 9 9
17 17 18 18 19 19 20 20 20 19 19 19 19 20 20 20 20 20 20 20 20 20 20 20 21 21 21 21 21 21 21 21 21 20 20 20 19 19 18 18 17 17 16 16 15 14 13 12 11 10 10 10 11 12 12 12 12 12 11 10 9 8 8 8 8 9 9 10 10
17 18 19 19 20 20 20 20 20 20 20 20 20 20 20 20 20 20 20 20 20 20 20 20 20 20 20 20 20 20 20 20 19 19 18 18 18 17 17 17 17 16 16 15 14 13 12 11 10 10 11 11 12 12 13 13 13 12 11 10 10 10 10 11 11 11 11 11 11
18 18 19 20 21 21 20 20 20 20 20 20 20 20 20 20 19 20 20 20 20 20 20 20 20 20 19 19 19 19 19 18 18 17 17 17 17 16 16 16 16 16 15 15 14 13 12 12 12 12 12 12 13 13 13 13 13 13 12 12 12 13 13 14 14 14 13 13 12
19 19 20 21 21 21 20 20 20 20 20 20 20 19 19 19 19 19 19 19 20 20 19 19 19 19 19 18 18 18 18 17 17 16 16 16 16 15 15 15 15 15 15 15 14 14 13 13 13 13 13 12 12 13 13 13 13 13 14 14 14 15 15 15 15 15 14 13 12
20 20 21 21 21 21 20 20 20 20 20 19 19 19 18 18 18 18 18 19 19 18 18 18 18 18 18 17 17 17 17 16 16 15 15 15 15 15 15 15 16 16 15 15 14 14 14 14 13 13 12 11 11 11 12 12 13 13 13 14 14 14 14 14 14 13 13 12 11
21 21 21 21 21 20 20 20 20 20 19 19 18 18 18 18 18 17 17 17 17 17 16 16 16 17 16 16 16 15 15 15 15 14 14 14 14 15 15 16 16 16 15 14 14 14 14 13 13 12 11 10 10 10 11 11 12 12 12 12 11 11 11 11 10 10 9 8 8
20 21 21 21 21 20 20 19 19 19 19 18 18 17 17 17 17 17 16 16 15 15 15 15 15 15 15 15 15 14 14 14 14 14 14 14 15 15 16 17 17 16 15 15 15 14 14 13 12 11 10 10 9 10 10 11 11 11 11 11 10 9 8 8 7 7 6 6 6
19 19 20 20 19 19 18 18 18 18 18 18 17 17 16 16 16 16 15 15 14 14 14 14 14 14 14 14 13 13 13 13 13 13 14 15 15 16 17 17 17 17 16 16 15 15 14 13 12 11 10 9 9 10 10 11 11 11 10 9 9 8 7 6 6 5 5 5 6
18 18 18 18 17 17 17 16 16 16 16 16 15 15 15 15 15 14 14 13 13 13 13 13 13 14 14 13 12 12 12 12 13 13 14 15 16 17 18 18 18 17 17 16 16 15 13 12 11 10 9 9 10 10 11 11 11 10 9 9 8 7 6 6 5 5 6 6 6
16 16 17 16 16 16 15 15 14 14 14 13 13 13 13 13 13 13 12 12 12 12 12 12 13 13 13 12 12 11 11 11 12 13 14 14 16 17 18 18 18 17 17 16 15 14 13 11 10 9 9 9 10 11 11 11 11 10 9 8 7 6 6 5 5 6 6 7 7
14 15 15 15 15 14 14 13 13 13 12 12 11 10 10 10 11 11 11 11 11 12 12 12 12 12 12 12 11 11 10 10 11 12 12 13 14 16 17 18 18 17 16 16 15 14 12 11 10 9 9 9 11 12 12 12 12 11 10 9 8 7 5 5 5 5 6 7 8
12 12 13 14 13 13 12 12 11 11 11 10 9 9 9 9 10 10 10 10 11 11 12 12 12 12 11 11 11 10 10 9 9 10 11 11 12 13 15 17 18 17 16 15 14 13 12 11 10 9 8 9 10 11 12 12 12 11 10 9 9 8 7 6 5 5 6 6 6
12 11 11 11 11 11 11 10 10 10 9 9 9 9 8 9 9 10 10 10 10 10 11 11 11 11 11 10 10 10 10 9 9 9 9 10 11 12 14 16 18 18 17 15 14 13 13 12 10 9 8 8 9 10 10 11 12 11 10 10 9 9 8 7 6 6 5 4 4
12 11 10 10 9 9 9 10 10 9 9 9 9 9 8 8 9 9 10 10 10 10 10 10 10 10 10 10 10 10 10 10 9 9 10 10 11 11 13 15 17 18 18 16 15 13 13 12 10 9 8 8 8 8 9 10 10 10 10 10 9 9 8 8 7 6 5 4 3
Wind_Direction
185 186 187 187 187 187 186 185 183 179 173 163 153 146 141 137 134 136 142 148 151 154 156 158 157 157 158 162 164 165 165 166 167 168 169 169 169 169 171 173 176 178 178 178 178 179 182 185 186 187 188 191 194 200 206 211 214 216 217 219 220 221 218 212 205 202 207 215 219
185 188 189 190 188 188 187 185 183 179 172 160 151 147 144 141 137 137 140 144 148 152 153 154 155 155 157 160 163 165 166 167 168 169 168 167 166 165 167 170 173 175 175 172 167 165 165 169 172 178 188 196 200 206 213 216 216 214 212 211 210 209 206 201 198 201 207 212 218
183 188 191 192 191 190 188 186 184 180 173 161 151 146 145 143 141 141 141 144 147 151 152 153 155 158 160 163 165 166 167 168 168 168 167 166 165 165 166 168 170 172 172 170 163 156 152 149 149 163 189 204 209 208 208 213 210 203 198 198 199 198 197 196 198 201 204 210 221
181 187 191 192 191 190 189 187 184 180 171 158 151 147 146 144 143 144 145 147 148 150 152 154 159 164 168 171 173 173 172 171 170 168 167 167 167 168 169 170 171 173 173 168 161 154 148 145 152 179 203 211 211 206 202 201 196 190 187 188 190 192 194 197 199 198 198 205 218
175 180 185 187 188 187 186 186 184 178 171 163 157 153 151 148 146 146 147 149 149 150 151 155 161 167 173 177 179 180 180 178 176 174 174 177 178 179 180 180 177 174 171 166 161 156 155 160 179 202 217 223 222 210 197 190 185 181 180 182 185 189 194 198 197 192 188 194 209
168 170 173 175 177 176 177 181 183 178 172 170 168 165 162 158 157 159 160 158 154 151 150 155 163 169 172 175 177 180 183 184 185 188 194 198 200 196 190 185 180 176 171 166 162 162 167 179 197 213 222 225 221 207 188 180 177 178 179 181 184 188 192 194 193 188 185 192 204
167 165 165 170 170 168 170 177 182 183 180 178 178 177 174 170 171 175 178 175 168 160 155 157 166 172 172 170 172 177 182 187 192 195 198 200 199 196 191 186 180 174 169 165 164 168 178 192 205 213 218 222 221 212 192 175 174 177 179 180 182 184 186 187 189 190 192 199 207
169 168 167 169 170 171 172 176 181 184 185 185 184 184 183 180 180 183 185 185 183 176 169 165 167 171 174 174 175 179 184 190 193 195 195 194 193 191 187 182 175 169 165 163 168 180 194 205 211 213 213 215 216 211 196 177 175 177 180 180 182 184 187 188 191 195 200 205 211
167 168 168 170 172 174 175 176 179 182 184 185 186 186 186 186 187 188 191 192 190 186 181 176 172 170 174 181 186 189 190 191 192 192 191 189 186 183 179 173 166 160 156 160 175 194 208 215 219 218 216 215 211 204 193 182 181 184 188 190 189 190 194 198 202 204 206 208 209
166 168 169 171 174 175 176 175 177 179 181 183 184 185 186 188 190 193 194 195 194 192 188 184 178 175 176 179 186 192 195 195 194 193 191 188 182 176 170 164 158 153 152 161 181 200 212 219 222 223 222 218 209 197 187 185 189 195 200 200 198 195 196 202 208 211 210 210 211
170 172 174 175 177 178 176 173 173 175 177 179 181 184 186 189 192 194 195 196 197 196 193 188 184 181 180 180 183 188 193 197 197 196 193 189 182 175 169 167 165 164 168 178 192 204 214 220 225 228 227 224 213 199 190 187 192 200 205 204 198 193 192 199 209 214 216 218 220
175 176 180 183 184 184 181 176 173 172 174 177 181 184 187 190 193 195 195 196 197 198 197 194 190 188 186 185 185 187 190 194 199 201 200 196 191 186 184 183 183 185 189 196 205 213 219 225 229 232 233 232 227 213 198 190 193 199 203 202 196 190 189 198 209 217 221 226 230
179 178 180 186 191 192 190 186 180 176 175 178 183 186 188 189 191 193 194 194 196 197 198 199 197 194 192 191 190 192 194 198 202 207 209 208 204 202 201 200 201 202 205 209 218 224 228 231 232 234 235 236 234 224 210 198 196 196 196 195 195 195 199 207 215 220 223 228 235
180 178 178 182 190 194 194 191 186 182 180 181 184 185 184 185 187 189 189 190 193 195 198 200 200 199 198 197 198 200 203 205 208 211 213 214 213 210 208 207 206 207 209 213 224 232 235 235 235 235 234 234 232 226 217 206 200 196 192 188 188 194 204 213 218 220 223 228 236
174 176 178 179 182 184 185 185 183 181 180 181 181 180 179 178 179 181 183 184 188 192 196 198 200 202 204 205 206 208 209 210 211 212 214 216 216 213 210 208 206 206 209 218 232 237 237 236 234 233 231 230 227 222 215 208 202 197 192 188 189 196 204 210 214 217 221 226 233
157 166 172 175 175 173 172 173 173 173 173 175 176 175 172 171 172 175 177 179 183 188 193 197 201 206 209 212 213 214 213 213 212 211 211 212 212 210 207 209 210 213 221 238 247 239 231 229 227 225 223 221 218 213 207 202 198 194 191 189 193 198 202 204 208 214 220 225 227
135 145 154 159 161 162 163 166 168 168 169 171 170 169 168 167 169 173 176 180 183 186 191 196 201 205 209 213 216 217 217 216 214 211 209 206 204 203 205 210 221 233 244 248 239 229 222 218 216 213 210 207 203 198 194 192 191 188 187 188 192 196 198 199 204 210 216 219 219
130 136 143 147 150 153 157 162 165 166 166 166 165 164 165 166 169 173 177 181 184 187 190 193 197 201 204 207 212 217 220 220 218 214 209 201 199 201 206 215 227 235 237 233 226 218 211 206 202 198 194 190 186 182 180 180 180 180 181 185 188 190 192 195 199 205 209 212 213
139 143 146 149 151 154 157 160 163 165 166 165 165 164 164 166 170 173 176 180 183 185 187 189 191 194 198 202 206 212 217 218 216 213 207 199 197 200 204 210 215 217 216 213 211 208 203 196 189 183 178 174 172 170 169 170 169 171 174 177 179 181 182 186 191 198 204 207 210
151 154 154 156 157 160 162 165 168 170 172 172 170 168 167 168 171 173 175 177 180 183 185 186 188 190 193 197 200 203 206 208 207 204 200 196 194 194 196 197 198 199 199 197 198 197 193 187 181 176 171 168 165 164 163 163 163 163 164 166 167 169 172 177 184 192 200 208 214
155 157 159 162 164 166 168 171 173 174 175 176 176 175 174 174 174 175 176 178 181 183 185 187 188 189 190 191 192 193 194 195 195 194 192 190 188 187 187 188 188 188 188 187 188 187 185 181 177 174 172 169 167 165 164 163 162 161 160 159 159 162 166 172 180 189 201 212 221
152 156 160 164 167 170 173 175 176 175 175 176 177 178 178 177 177 178 180 183 184 185 185 186 186 186 186 186 186 185 185 185 185 185 184 182 180 180 181 182 181 180 179 179 180 180 179 178 177 176 174 172 169 167 166 165 164 162 159 157 157 159 164 171 179 190 205 218 224
145 150 154 158 163 167 169 170 170 170 169 170 172 173 174 173 174 176 178 179 180 181 182 182 183 183 183 183 182 181 179 177 176 176 176 175 173 172 173 173 173 172 171 173 174 175 175 175 175 174 174 171 167 165 163 162 161 159 157 156 158 161 166 175 185 196 206 213 214
138 141 144 149 153 157 159 160 160 160 160 162 164 167 168 169 170 171 172 173 174 175 177 177 178 179 179 179 178 177 174 171 169 168 168 167 166 164 164 164 164 164 166 168 171 173 173 172 171 170 168 165 161 157 155 155 155 154 155 158 163 168 173 181 189 194 197 199 199
135 137 138 141 144 147 150 151 152 153 154 157 159 161 162 163 164 165 166 166 168 169 171 171 173 173 173 172 172 171 168 166 163 161 159 159 158 158 157 157 157 158 160 163 166 169 171 171 169 165 162 159 155 152 150 150 150 152 156 162 167 170 174 179 185 188 189 190 190
137 137 137 139 141 142 142 143 145 148 150 154 155 154 154 154 156 158 159 159 161 162 163 164 165 166 166 165 164 163 161 159 158 156 154 152 151 151 152 152 153 155 157 159 162 164 167 167 166 164 160 157 155 152 150 149 151 155 159 164 169 171 173 176 181 185 186 186 183
133 134 135 137 137 135 134 137 139 141 144 147 147 147 147 149 151 153 154 154 154 155 156 157 157 158 159 159 158 156 154 153 152 150 149 149 148 148 149 150 152 153 155 157 159 161 162 162 162 161 160 159 158 157 155 155 156 159 163 166 170 173 176 180 184 186 185 183 179
126 129 130 131 128 127 128 132 133 134 136 138 140 142 144 147 148 150 150 150 150 150 149 149 151 152 153 152 151 151 149 148 147 146 147 147 148 148 149 150 151 152 154 156 158 160 161 161 161 162 164 165 165 165 164 163 163 164 167 170 173 177 180 185 189 189 186 184 182
119 122 123 123 121 121 124 126 128 129 131 132 134 137 139 142 143 145 145 146 146 145 144 143 146 147 147 146 146 146 145 144 144 145 146 147 148 149 150 151 151 153 156 158 160 162 162 163 164 167 170 173 173 172 171 170 169 170 172 176 180 183 186 187 190 190 190 190 190
113 115 116 118 118 120 121 123 124 126 127 128 130 131 133 134 135 136 138 139 140 140 141 142 142 142 141 141 142 142 141 142 144 145 146 146 147 149 151 153 154 156 159 162 163 164 165 165 167 170 173 175 177 176 174 173 173 175 177 181 185 187 188 190 192 193 195 197 198
108 110 112 114 115 117 119 121 123 124 125 125 126 127 127 127 127 128 131 132 133 136 139 141 139 138 138 139 140 140 140 141 143 145 147 148 149 151 154 156 157 159 162 165 165 164 164 166 168 170 172 174 175 175 175 175 176 178 181 184 186 189 191 194 196 199 201 202 203
107 108 109 110 111 113 116 118 120 121 122 123 123 124 123 123 124 126 128 129 131 133 135 136 136 135 135 137 138 139 140 142 144 146 150 152 153 155 157 158 159 160 163 164 163 163 163 165 167 168 168 169 171 172 173 173 174 177 180 183 185 188 191 195 198 201 203 204 204
106 107 107 107 107 109 112 115 117 119 120 120 121 121 122 123 125 126 127 129 131 132 133 134 133 133 134 136 137 139 141 143 146 150 154 157 158 158 157 157 157 157 158 159 160 160 162 164 165 165 164 165 166 167 167 167 168 171 174 176 178 180 184 188 191 195 197 198 196
105 105 105 105 105 106 108 110 113 115 116 117 118 120 122 124 125 126 127 129 131 132 133 134 133 133 134 136 137 138 141 145 149 153 157 159 160 158 156 154 153 154 155 158 159 161 163 164 165 163 162 162 162 162 161 161 162 164 165 166 167 169 172 175 178 181 182 181 179
103 103 103 103 104 104 106 107 109 111 112 113 115 118 122 124 125 125 126 128 129 129 129 130 131 131 131 132 135 137 140 144 149 154 158 160 160 157 154 153 153 155 157 161 163 165 166 168 167 165 163 162 161 161 160 159 159 159 159 159 159 160 162 164 167 170 172 172 170
103 102 101 102 103 104 105 107 108 109 110 111 114 117 121 123 124 125 126 127 126 125 125 127 129 129 128 128 130 136 141 146 151 156 159 161 160 158 156 155 156 159 162 166 168 170 172 173 171 168 164 163 162 162 161 160 158 157 156 155 154 155 157 159 162 166 169 170 168
103 103 102 102 102 103 105 107 108 108 109 111 115 118 121 124 125 126 127 128 126 125 127 129 131 131 131 132 133 138 145 151 154 157 160 163 164 162 160 159 159 162 167 172 174 175 177 178 175 169 165 164 164 163 162 160 158 156 153 152 153 154 156 158 160 164 168 171 171
103 104 104 103 103 103 104 106 106 108 109 112 116 120 124 128 130 131 133 134 131 131 132 135 136 138 139 139 140 143 148 153 157 159 161 165 169 168 166 163 163 165 170 175 177 179 179 178 174 169 165 164 164 164 163 160 156 153 151 151 155 160 163 164 165 168 172 175 178
102 103 104 104 104 104 104 104 105 106 109 112 115 120 126 131 134 137 139 141 140 139 139 140 142 144 146 146 145 146 150 155 161 164 167 170 176 178 175 170 168 168 172 177 179 179 177 175 172 167 162 161 162 162 161 159 155 152 151 154 161 168 174 177 177 177 178 180 183
101 101 101 102 102 102 102 102 102 104 107 111 116 120 125 130 135 140 144 147 147 147 147 147 149 151 153 153 150 150 152 157 163 168 172 175 181 186 184 179 173 171 173 177 179 178 175 173 172 167 160 155 154 156 156 156 153 152 154 158 165 172 178 181 183 186 187 185 180
100 100 100 100 100 100 100 101 102 104 107 113 118 122 125 130 135 141 145 148 150 152 153 153 154 156 158 157 155 153 152 155 160 166 171 175 180 186 188 185 180 177 175 176 177 176 175 175 174 171 162 152 147 147 149 151 151 153 156 160 166 172 176 180 185 191 196 196 182
Height
725 727 730 732 735 737 739 740 742 743 744 745 745 745 745 745 746 748 750 752 754 756 758 760 761 763 764 765 766 768 769 770 772 773 775 776 778 779 781 783 784 785 787 788 789 790 791 792 793 795 796 797 798 798 799 800 801 802 802 803 804 806 808 809 810 811 812 814 816
725 728 731 733 736 738 740 742 743 743 744 744 743 743 744 745 747 748 750 752 754 756 758 759 761 763 764 765 766 768 769 770 772 773 774 776 778 779 781 782 783 785 786 787 788 789 791 793 794 796 797 798 798 798 798 799 799 800 801 802 803 805 806 807 808 809 810 812 814
725 728 731 734 736 738 740 741 742 743 743 742 743 743 744 746 747 749 751 752 754 755 757 759 760 762 764 765 767 768 769 770 772 773 774 776 777 778 780 781 783 784 785 786 787 788 790 793 795 797 798 799 799 798 798 798 798 798 799 800 802 803 805 806 806 807 808 810 813
725 728 730 733 735 736 737 738 740 740 740 740 741 743 744 746 748 749 751 752 753 755 757 758 760 761 763 765 766 768 769 770 771 773 774 775 777 778 779 781 782 783 784 785 786 788 790 792 795 797 799 800 799 798 796 796 796 797 798 799 801 803 803 804 805 805 806 809 813
724 726 729 731 733 734 735 736 737 738 738 739 741 742 744 746 748 749 751 752 753 755 756 758 759 761 762 764 765 767 768 770 771 773 774 775 777 778 779 781 782 783 783 784 785 787 789 792 794 797 798 799 799 798 795 794 794 795 797 798 800 802 803 804 804 804 805 809 814
723 725 727 729 731 733 734 735 736 737 738 739 740 742 743 745 748 750 751 752 753 755 756 758 759 761 762 763 765 767 768 770 771 773 775 776 778 779 780 781 781 782 783 783 784 787 789 792 794 796 798 799 798 797 794 793 793 795 796 798 800 801 803 803 803 803 805 809 814
722 723 725 727 730 732 733 735 736 737 738 739 741 742 743 744 747 749 751 753 754 755 756 758 759 761 763 763 765 766 768 769 772 773 775 777 778 779 780 780 780 781 781 782 784 786 789 792 794 796 797 797 797 795 793 792 793 794 796 798 799 800 802 803 803 804 806 809 813
720 722 724 726 728 731 732 734 736 737 738 739 740 741 742 744 746 748 750 752 753 755 756 758 759 761 763 764 765 766 768 769 771 773 775 776 778 778 779 779 779 779 780 781 784 787 790 793 795 796 796 796 795 794 792 791 792 794 796 797 798 799 800 802 803 804 807 809 812
720 721 723 725 728 730 732 733 735 736 737 738 739 740 741 743 744 746 748 750 753 754 756 757 758 760 763 764 765 767 768 769 771 773 774 776 777 778 778 778 778 778 778 781 784 788 792 795 797 797 797 795 794 792 790 789 791 793 795 797 798 798 799 801 803 804 807 809 811
719 721 723 725 728 730 732 733 734 735 736 737 738 739 741 742 744 746 747 749 751 753 755 756 758 759 761 763 765 767 768 769 771 773 774 775 776 777 777 777 776 777 778 781 785 789 793 796 797 798 798 796 793 790 788 787 790 793 795 796 797 797 798 800 802 804 807 809 810
718 720 723 725 728 730 732 733 734 734 735 736 737 738 740 742 743 745 746 748 750 751 753 755 757 758 760 761 763 765 767 769 770 772 774 775 776 776 776 776 776 776 778 781 785 789 793 795 797 797 798 796 793 790 787 787 789 791 794 795 795 796 797 799 802 804 807 808 810
719 721 723 726 728 731 732 733 733 734 734 735 737 738 740 742 743 744 745 746 748 749 751 753 756 758 759 761 762 763 765 767 769 772 774 775 776 776 775 775 775 776 778 780 784 788 791 793 795 796 796 796 794 792 789 787 788 790 792 793 793 793 794 797 800 803 806 808 810
720 721 724 726 729 731 732 733 733 733 734 735 737 738 740 741 742 743 744 745 746 748 750 753 755 757 759 760 762 763 764 765 768 770 773 775 776 776 775 774 774 775 777 779 783 786 789 791 792 793 793 794 794 792 790 788 788 788 789 790 790 791 793 796 799 803 805 807 809
720 722 724 727 729 731 732 733 733 733 734 735 736 738 739 740 742 742 743 744 746 748 750 753 755 757 759 760 762 763 764 765 767 769 772 773 775 775 774 773 773 774 775 777 780 783 786 788 789 790 791 792 792 791 790 788 787 786 786 786 787 789 792 795 798 801 804 806 808
720 722 724 726 728 729 730 732 732 733 734 735 736 737 738 739 741 742 743 744 746 748 750 752 755 757 759 760 762 763 764 765 766 768 770 772 773 773 772 772 772 772 773 775 777 780 783 785 786 787 788 789 789 789 788 787 786 785 784 783 784 787 790 793 797 799 802 804 807
720 722 723 725 726 727 728 730 731 733 733 735 736 737 737 738 740 741 743 744 745 748 749 752 754 756 758 760 762 763 764 765 766 767 768 769 770 770 770 770 770 770 770 773 776 780 782 784 785 785 786 786 786 786 786 785 784 783 783 782 783 785 788 792 794 797 800 803 805
721 722 723 724 725 726 727 729 730 732 734 735 736 736 737 737 738 740 742 743 745 747 749 751 753 755 757 759 761 762 763 765 765 766 766 767 767 768 768 767 767 767 769 771 776 779 782 784 784 784 784 785 784 784 784 784 783 783 782 782 782 784 787 789 791 795 798 801 803
722 723 723 724 725 727 728 729 731 733 734 735 735 736 736 737 738 739 741 743 744 746 748 750 752 753 755 757 759 761 763 764 764 765 765 765 765 765 765 765 765 766 768 771 775 779 781 783 783 784 784 783 783 783 783 783 783 783 782 782 783 784 785 787 789 793 797 799 802
723 723 724 725 726 728 729 730 731 733 734 735 735 735 736 737 738 739 741 742 744 746 748 749 751 753 754 756 758 759 761 762 763 764 764 764 764 763 763 763 764 766 767 769 773 777 780 782 782 783 783 782 782 782 782 783 783 783 783 783 783 784 784 786 788 792 795 798 800
723 724 725 726 727 728 729 730 731 733 734 734 735 736 737 738 739 740 741 742 744 745 747 748 750 751 753 755 757 758 759 761 762 763 763 763 763 763 762 762 763 765 766 767 771 775 779 781 781 782 782 781 781 781 782 782 783 783 784 784 784 784 784 786 788 791 794 797 799
723 724 725 726 727 728 729 730 731 732 733 734 735 736 737 738 739 740 741 742 743 744 746 748 749 751 753 755 756 758 759 760 761 762 762 763 763 762 762 762 763 764 765 767 770 774 778 779 780 781 781 781 781 781 781 782 783 783 784 784 784 785 785 787 789 791 794 796 798
723 723 724 725 726 727 728 729 731 732 733 734 735 736 737 738 739 740 741 742 743 744 746 748 750 751 753 755 756 757 758 759 760 761 762 762 762 762 762 762 763 764 765 767 770 774 776 778 779 779 780 780 780 780 781 781 783 783 784 784 785 786 787 788 790 791 793 796 798
723 723 724 725 726 727 728 730 731 732 733 734 735 736 737 738 739 740 742 743 744 745 747 748 750 752 753 755 756 757 758 759 760 761 761 762 761 761 762 762 763 764 766 768 770 773 775 776 777 778 778 779 779 779 780 781 782 783 784 784 786 787 788 789 790 792 794 797 799
723 724 725 726 727 728 729 730 731 733 733 735 736 737 738 739 740 741 743 744 745 746 748 749 751 753 754 755 757 758 758 759 760 761 761 761 761 761 762 763 763 765 766 768 770 772 773 774 776 777 778 778 778 779 780 781 782 783 783 785 786 787 788 790 791 793 795 798 799
725 725 726 727 728 729 730 731 732 733 735 736 737 738 739 740 741 742 744 745 747 748 749 750 752 753 755 756 757 758 759 759 760 760 760 761 761 761 762 763 764 766 767 768 770 771 772 773 774 775 776 777 778 779 780 781 781 782 783 785 786 788 789 791 792 794 796 797 798
726 727 728 729 730 731 732 733 734 735 736 737 738 739 740 741 742 743 745 747 748 749 750 751 753 754 756 757 758 759 759 760 760 760 760 760 761 762 762 763 765 766 767 769 770 771 772 773 774 775 776 777 778 778 780 781 782 783 784 785 787 788 789 791 793 794 796 797 798
727 728 729 730 731 732 733 734 735 736 737 738 739 740 741 742 743 745 746 748 749 750 752 752 753 755 756 757 758 759 759 760 760 760 760 760 761 761 763 764 765 766 768 769 770 771 773 774 775 775 776 777 778 778 780 781 782 783 784 785 787 788 789 791 793 794 795 797 797
728 729 730 730 731 733 734 735 736 737 738 739 740 741 742 743 744 745 747 748 750 751 752 753 753 754 756 757 758 758 759 759 759 759 759 760 761 762 763 764 766 767 768 769 771 772 773 774 775 776 777 777 778 779 780 781 782 783 784 785 786 788 789 791 793 794 795 796 797
730 730 731 732 733 734 735 736 737 738 739 740 741 742 743 744 745 746 747 748 750 751 752 753 753 754 755 756 757 758 758 758 758 759 759 760 761 763 764 765 766 768 769 770 771 773 773 774 776 776 777 778 779 780 780 781 782 783 784 785 786 788 790 791 793 794 795 795 796
731 731 732 733 733 735 736 737 738 739 740 741 742 743 744 745 746 747 748 749 750 751 752 753 753 754 755 756 757 757 758 758 759 759 760 761 762 763 765 766 768 769 770 771 772 773 774 775 776 777 778 779 779 780 781 781 782 783 784 785 787 788 790 792 793 794 794 795 795
733 733 734 734 735 736 737 738 739 740 741 742 743 744 746 747 748 748 749 750 750 751 752 753 753 754 755 756 757 757 758 758 760 761 762 762 763 765 766 768 769 770 771 772 773 774 775 776 777 778 778 779 780 780 781 782 783 783 784 786 787 788 790 791 792 793 793 794 794
734 735 736 736 737 738 738 739 740 741 742 743 744 746 747 748 748 749 750 751 751 752 753 753 754 754 755 756 757 758 759 760 761 762 763 763 765 766 767 769 770 771 772 773 774 775 776 777 778 778 779 779 780 781 781 782 783 784 785 786 788 789 790 791 792 792 793 793 793
736 737 737 738 738 739 740 740 741 742 743 744 746 747 748 748 749 750 751 752 752 753 754 754 755 756 756 757 758 759 760 761 762 763 763 765 766 767 768 769 771 772 773 773 774 775 776 777 778 778 779 780 780 781 782 782 783 784 785 787 788 789 790 790 791 791 792 792 792
737 738 738 739 740 740 741 742 743 743 744 746 747 748 748 749 750 751 752 753 753 754 755 755 756 757 758 758 759 760 760 761 763 763 764 766 767 768 769 770 772 773 773 774 775 776 776 777 778 779 780 780 781 781 782 783 784 785 786 787 788 788 789 789 790 790 791 791 792
738 739 739 740 741 742 743 743 744 745 746 747 748 748 749 750 751 752 753 753 754 755 755 756 757 758 758 759 760 761 761 762 763 764 765 767 768 769 770 771 772 773 774 775 775 776 777 778 778 779 780 781 781 782 783 783 784 785 786 787 787 788 788 789 789 790 790 791 791
740 740 741 741 742 743 743 744 745 746 746 747 748 749 750 751 752 753 753 753 754 755 756 757 758 759 760 760 761 762 763 763 764 765 767 768 768 769 770 772 773 774 774 775 776 776 777 778 779 779 780 781 781 782 783 783 784 785 786 786 787 787 788 788 789 789 790 791 791
741 741 742 743 743 744 745 745 746 746 747 748 749 750 751 752 752 753 753 754 755 756 757 758 759 760 761 762 762 763 764 764 765 766 767 768 769 770 771 772 773 774 775 775 776 777 778 778 779 780 780 781 782 782 783 783 784 785 785 786 787 787 788 788 789 789 790 791 791
743 743 743 744 744 745 746 746 747 747 748 749 749 750 751 752 753 753 754 755 755 756 758 759 760 761 762 762 763 764 764 765 766 767 768 769 770 770 771 773 773 774 775 776 776 777 778 778 779 780 780 781 782 782 783 783 784 785 785 786 787 787 788 788 789 789 790 790 791
744 744 745 745 746 747 747 748 748 748 749 750 750 751 752 753 753 754 755 755 756 757 758 759 760 761 762 763 763 764 765 766 767 767 768 769 770 771 772 773 774 775 776 776 777 778 778 779 779 780 781 781 782 782 783 783 784 784 785 786 787 788 788 788 789 789 790 790 791
745 746 746 747 747 748 748 749 749 750 751 751 752 752 753 753 754 755 756 756 757 758 758 759 760 761 762 763 763 764 765 766 767 768 768 769 770 771 772 773 774 775 776 777 778 778 779 779 780 780 781 782 782 783 783 783 784 785 785 786 787 788 788 788 789 789 789 790 790
747 747 748 748 748 749 749 750 751 751 752 752 753 753 754 754 755 756 756 757 758 758 759 760 761 762 763 763 764 764 765 766 767 768 769 770 771 772 773 773 774 775 776 777 778 779 779 780 780 781 781 782 782 783 783 783 784 785 785 786 787 787 788 788 788 789 789 789 790